1998-067PH

Last updated on Sat Sep 08 2018 00:06:51 GMT+0000 (Coordinated Universal Time)

1 43596U 98067PH 18250.44565972 .00007315 00000-0 11571-3 0 9999 2 43596 51.6415 328.6909 0004462 119.1464 240.9974 15.54586816 3535

Satellite not in orbit

1998-067PH